Location: Coopersdale
(40.3556°N, 78.9372°W)
Time: 14:53:44
(UTC+00:00)

deb Explorer IX - Visible Passes

Search period start: 25 January 2021 00:00
Search period end: 04 February 2021 00:00
Orbit: 536 x 1104 km, 38.8° (Epoch: 25 January)

Date Brightness Start Highest point End Pass type
(mag) Time Alt. Az. Time Alt. Az. Time Alt. Az.
25 Jan ? 00:57:47 10° W 01:03:02 64° WSW 01:03:02 64° WSW visible
25 Jan ? 22:46:30 10° WSW 22:53:09 60° SSE 22:58:51 10° E visible
26 Jan ? 00:33:54 10° W 00:40:10 78° S 00:40:44 69° SE visible
26 Jan ? 02:21:30 10° W 02:22:00 12° W 02:22:00 12° W visible
27 Jan ? 00:10:02 10° W 00:16:28 78° S 00:18:26 42° ESE visible
27 Jan ? 01:57:39 10° W 01:59:43 21° W 01:59:43 21° W visible
27 Jan ? 23:46:07 10° W 23:52:44 78° S 23:56:10 25° E visible
28 Jan ? 01:33:46 10° W 01:37:26 34° WSW 01:37:26 34° WSW visible
28 Jan ? 23:22:13 10° W 23:28:59 79° S 23:33:55 15° E visible
29 Jan ? 01:09:53 10° W 01:15:12 49° SW 01:15:12 49° SW visible
29 Jan ? 22:58:18 10° W 23:05:13 79° S 23:11:12 10° E visible
30 Jan ? 00:45:59 10° W 00:52:11 53° SSW 00:53:00 49° S visible
31 Jan ? 00:22:03 10° W 00:28:27 54° SSW 00:30:53 33° SE visible
31 Jan ? 02:10:34 10° W 02:12:10 15° WSW 02:12:10 15° WSW visible
31 Jan ? 23:58:08 10° W 00:04:42 55° SSW 00:08:50 19° SE visible
01 Feb ? 01:46:37 10° W 01:50:08 19° SW 01:50:08 19° SW visible
01 Feb ? 23:34:12 10° W 23:40:56 55° SSW 23:46:44 10° SE visible
02 Feb ? 01:22:40 10° W 01:27:11 21° SW 01:28:12 20° SSW visible
02 Feb ? 23:10:17 10° W 23:17:07 56° SSW 23:23:07 10° ESE visible
03 Feb ? 00:58:42 10° W 01:03:26 21° SW 01:06:23 15° S visible
